TimeCST,TemperatureF,Dew PointF,Humidity,Sea Level PressureIn,VisibilityMPH,Wind Direction,Wind SpeedMPH,Gust SpeedMPH,PrecipitationIn,Events,Conditions,WindDirDegrees,DateUTC
12:15 AM,19.4,15.8,86,30.25,10.0,North,8.1,-,N/A,,Mostly Cloudy,360,2014-03-08 06:15:00
12:35 AM,19.4,14.0,80,30.25,10.0,North,11.5,-,N/A,,Partly Cloudy,360,2014-03-08 06:35:00
12:55 AM,19.4,14.0,80,30.25,10.0,North,10.4,-,N/A,,Clear,360,2014-03-08 06:55:00
1:15 AM,19.4,14.0,80,30.25,10.0,North,12.7,-,N/A,,Clear,360,2014-03-08 07:15:00
1:35 AM,17.6,14.0,86,30.26,10.0,North,13.8,-,N/A,,Clear,360,2014-03-08 07:35:00
1:55 AM,17.6,14.0,86,30.26,10.0,North,11.5,-,N/A,,Clear,360,2014-03-08 07:55:00
2:15 AM,17.6,14.0,86,30.26,10.0,North,9.2,-,N/A,,Clear,10,2014-03-08 08:15:00
2:35 AM,15.8,12.2,86,30.26,10.0,North,11.5,-,N/A,,Clear,360,2014-03-08 08:35:00
2:55 AM,15.8,12.2,86,30.26,10.0,North,9.2,-,N/A,,Clear,360,2014-03-08 08:55:00
3:15 AM,15.8,12.2,86,30.26,10.0,North,10.4,-,N/A,,Clear,360,2014-03-08 09:15:00
3:35 AM,14.0,12.2,93,30.26,10.0,NNE,3.5,-,N/A,,Partly Cloudy,30,2014-03-08 09:35:00
3:55 AM,14.0,10.4,86,30.27,10.0,North,5.8,-,N/A,,Partly Cloudy,360,2014-03-08 09:55:00
4:15 AM,14.0,10.4,86,30.28,10.0,North,6.9,-,N/A,,Clear,10,2014-03-08 10:15:00
4:30 AM,14.0,10.4,86,30.29,10.0,North,5.8,-,N/A,,Clear,360,2014-03-08 10:30:00
4:55 AM,14.0,10.4,86,30.29,10.0,NNE,5.8,-,N/A,,Clear,20,2014-03-08 10:55:00
5:15 AM,12.2,10.4,92,30.30,10.0,North,5.8,-,N/A,,Clear,10,2014-03-08 11:15:00
5:35 AM,12.2,10.4,92,30.30,10.0,Calm,Calm,-,N/A,,Clear,0,2014-03-08 11:35:00
5:55 AM,12.2,8.6,85,30.31,10.0,Calm,Calm,-,N/A,,Clear,0,2014-03-08 11:55:00
6:15 AM,12.2,8.6,85,30.31,10.0,Calm,Calm,-,N/A,,Clear,0,2014-03-08 12:15:00
6:35 AM,12.2,8.6,85,30.32,10.0,Calm,Calm,-,N/A,,Clear,0,2014-03-08 12:35:00
6:55 AM,10.4,8.6,92,30.33,10.0,Calm,Calm,-,N/A,,Clear,0,2014-03-08 12:55:00
7:15 AM,10.4,8.6,92,30.33,10.0,Calm,Calm,-,N/A,,Clear,0,2014-03-08 13:15:00
7:35 AM,12.2,8.6,85,30.33,10.0,Calm,Calm,-,N/A,,Clear,0,2014-03-08 13:35:00
7:55 AM,12.2,8.6,85,30.34,10.0,North,4.6,-,N/A,,Clear,350,2014-03-08 13:55:00
8:15 AM,14.0,8.6,79,30.34,10.0,North,6.9,-,N/A,,Clear,350,2014-03-08 14:15:00
8:35 AM,14.0,10.4,86,30.34,10.0,North,4.6,-,N/A,,Clear,360,2014-03-08 14:35:00
8:55 AM,15.8,10.4,79,30.34,10.0,Variable,5.8,-,N/A,,Clear,0,2014-03-08 14:55:00
9:10 AM,15.8,10.4,79,30.34,10.0,North,3.5,11.5,N/A,,Clear,350,2014-03-08 15:10:00
9:35 AM,17.6,12.2,79,30.36,10.0,Variable,6.9,-,N/A,,Clear,0,2014-03-08 15:35:00
9:55 AM,17.6,12.2,79,30.36,10.0,NNW,5.8,-,N/A,,Clear,340,2014-03-08 15:55:00
10:15 AM,19.4,12.2,74,30.36,10.0,NNE,3.5,-,N/A,,Clear,20,2014-03-08 16:15:00
10:35 AM,21.2,14.0,74,30.36,10.0,NNW,4.6,-,N/A,,Clear,340,2014-03-08 16:35:00
10:55 AM,21.2,14.0,74,30.36,10.0,NNE,3.5,-,N/A,,Clear,20,2014-03-08 16:55:00
11:15 AM,23.0,15.8,74,30.36,10.0,NNW,4.6,-,N/A,,Clear,330,2014-03-08 17:15:00
11:35 AM,23.0,15.8,74,30.36,10.0,Calm,Calm,-,N/A,,Clear,0,2014-03-08 17:35:00
11:55 AM,24.8,15.8,69,30.35,10.0,North,4.6,-,N/A,,Clear,350,2014-03-08 17:55:00
12:15 PM,24.8,17.6,74,30.35,10.0,North,5.8,-,N/A,,Clear,350,2014-03-08 18:15:00
12:35 PM,26.6,17.6,69,30.35,10.0,NW,5.8,-,N/A,,Clear,320,2014-03-08 18:35:00
12:55 PM,26.6,17.6,69,30.34,10.0,Variable,4.6,-,N/A,,Clear,0,2014-03-08 18:55:00
1:15 PM,28.4,17.6,64,30.32,10.0,Variable,5.8,-,N/A,,Clear,0,2014-03-08 19:15:00
1:35 PM,28.4,17.6,64,30.31,10.0,Variable,3.5,-,N/A,,Clear,0,2014-03-08 19:35:00
1:55 PM,28.4,17.6,64,30.31,10.0,NW,5.8,-,N/A,,Clear,320,2014-03-08 19:55:00
2:15 PM,28.4,17.6,64,30.31,10.0,Variable,4.6,-,N/A,,Clear,0,2014-03-08 20:15:00
2:35 PM,30.2,19.4,64,30.30,10.0,West,4.6,-,N/A,,Clear,270,2014-03-08 20:35:00
2:55 PM,30.2,19.4,64,30.30,10.0,Calm,Calm,-,N/A,,Clear,0,2014-03-08 20:55:00
3:15 PM,32.0,19.4,60,30.30,10.0,Calm,Calm,-,N/A,,Clear,0,2014-03-08 21:15:00
3:35 PM,32.0,19.4,60,30.30,10.0,Variable,4.6,-,N/A,,Clear,0,2014-03-08 21:35:00
3:55 PM,32.0,19.4,60,30.30,10.0,Variable,3.5,-,N/A,,Clear,0,2014-03-08 21:55:00
4:15 PM,32.0,19.4,60,30.29,10.0,Calm,Calm,-,N/A,,Clear,0,2014-03-08 22:15:00
4:35 PM,32.0,19.4,60,30.29,10.0,Calm,Calm,-,N/A,,Clear,0,2014-03-08 22:35:00
4:55 PM,33.8,17.6,52,30.29,10.0,Calm,Calm,-,N/A,,Clear,0,2014-03-08 22:55:00
5:15 PM,33.8,17.6,52,30.28,10.0,Calm,Calm,-,N/A,,Clear,0,2014-03-08 23:15:00
5:35 PM,32.0,17.6,55,30.28,10.0,Calm,Calm,-,N/A,,Clear,0,2014-03-08 23:35:00
5:55 PM,32.0,19.4,60,30.27,10.0,Calm,Calm,-,N/A,,Clear,0,2014-03-08 23:55:00
6:15 PM,32.0,19.4,60,30.27,10.0,Calm,Calm,-,N/A,,Clear,0,2014-03-09 00:15:00
6:35 PM,32.0,19.4,60,30.28,10.0,Calm,Calm,-,N/A,,Clear,0,2014-03-09 00:35:00
6:55 PM,30.2,19.4,64,30.28,10.0,Calm,Calm,-,N/A,,Clear,0,2014-03-09 00:55:00
7:15 PM,28.4,21.2,74,30.27,10.0,ESE,6.9,-,N/A,,Clear,120,2014-03-09 01:15:00
7:35 PM,28.4,21.2,74,30.27,10.0,SE,6.9,-,N/A,,Clear,130,2014-03-09 01:35:00
7:55 PM,26.6,21.2,80,30.26,-9999.0,SE,9.2,-,N/A,,Clear,130,2014-03-09 01:55:00
8:15 PM,26.6,21.2,80,30.26,10.0,SE,8.1,-,N/A,,Clear,130,2014-03-09 02:15:00
8:35 PM,26.6,21.2,80,30.25,10.0,SE,9.2,-,N/A,,Clear,130,2014-03-09 02:35:00
8:55 PM,26.6,19.4,74,30.24,10.0,SE,10.4,17.3,N/A,,Clear,130,2014-03-09 02:55:00
9:15 PM,26.6,19.4,74,30.24,10.0,SE,9.2,-,N/A,,Clear,140,2014-03-09 03:15:00
9:35 PM,24.8,19.4,80,30.24,10.0,SSW,4.6,-,N/A,,Clear,200,2014-03-09 03:35:00
9:55 PM,24.8,19.4,80,30.24,10.0,South,8.1,-,N/A,,Clear,170,2014-03-09 03:55:00
10:15 PM,24.8,19.4,80,30.24,10.0,South,6.9,-,N/A,,Clear,180,2014-03-09 04:15:00
10:35 PM,24.8,19.4,80,30.22,10.0,South,8.1,-,N/A,,Clear,170,2014-03-09 04:35:00
10:55 PM,24.8,19.4,80,30.22,10.0,South,6.9,-,N/A,,Clear,180,2014-03-09 04:55:00
11:15 PM,24.8,19.4,80,30.22,10.0,South,5.8,-,N/A,,Clear,170,2014-03-09 05:15:00
11:35 PM,23.0,19.4,86,30.20,10.0,South,5.8,-,N/A,,Clear,170,2014-03-09 05:35:00
11:55 PM,24.8,19.4,80,30.20,10.0,South,6.9,-,N/A,,Clear,180,2014-03-09 05:55:00